VOZ1380 YMML-YMLT

Flight info

Callsign VOZ1380
Flight time 0h 46m
Altitude 31000
Route ML H169 IRSOM W105 LT
Aircraft A20N/M-SDE2E3FGHIRWXY/LB1

Departure

Time 2026-04-16 11:14
Airport Melbourne Airport (YMML)

Arrival

Time 2026-04-16 12:00
Airport Launceston Airport (YMLT)
Time Latitude Longitude Altitude Speed Heading
2026-04-16 10:35 -37.67130 144.84587 389 ft 0 kts 352°
2026-04-16 10:59 -37.67145 144.84589 388 ft 2 kts 350°
2026-04-16 11:00 -37.67162 144.84593 387 ft 2 kts 353°
2026-04-16 11:00 -37.67177 144.84586 387 ft 2 kts 347°
2026-04-16 11:00 -37.67193 144.84592 386 ft 2 kts 308°
2026-04-16 11:00 -37.67200 144.84610 386 ft 2 kts 269°
2026-04-16 11:01 -37.67200 144.84618 386 ft 0 kts 265°
2026-04-16 11:07 -37.67200 144.84614 386 ft 2 kts 265°
2026-04-16 11:07 -37.67203 144.84581 386 ft 6 kts 264°
2026-04-16 11:08 -37.67206 144.84506 385 ft 10 kts 278°
2026-04-16 11:08 -37.67197 144.84411 385 ft 13 kts 267°
2026-04-16 11:08 -37.67189 144.84290 383 ft 15 kts 307°
2026-04-16 11:08 -37.67091 144.84249 385 ft 16 kts 352°
2026-04-16 11:09 -37.66977 144.84228 386 ft 18 kts 351°
2026-04-16 11:09 -37.66859 144.84206 389 ft 15 kts 353°
2026-04-16 11:09 -37.66754 144.84188 393 ft 13 kts 355°
2026-04-16 11:09 -37.66696 144.84254 395 ft 13 kts 79°
2026-04-16 11:10 -37.66682 144.84378 396 ft 15 kts 82°
2026-04-16 11:10 -37.66665 144.84525 397 ft 18 kts 81°
2026-04-16 11:10 -37.66646 144.84679 400 ft 18 kts 81°
2026-04-16 11:10 -37.66613 144.84785 400 ft 12 kts 43°
2026-04-16 11:11 -37.66536 144.84798 404 ft 12 kts 347°
2026-04-16 11:11 -37.66458 144.84779 409 ft 12 kts 356°
2026-04-16 11:11 -37.66379 144.84785 406 ft 11 kts
2026-04-16 11:11 -37.66347 144.84786 412 ft 0 kts
2026-04-16 11:12 -37.66345 144.84787 412 ft 0 kts
2026-04-16 11:13 -37.66343 144.84787 413 ft 1 kts
2026-04-16 11:13 -37.66312 144.84787 413 ft 8 kts 355°
2026-04-16 11:13 -37.66238 144.84735 411 ft 17 kts 308°
2026-04-16 11:13 -37.66203 144.84441 414 ft 64 kts 273°
2026-04-16 11:14 -37.66156 144.83614 407 ft 122 kts 274°
2026-04-16 11:14 -37.66078 144.82339 425 ft 169 kts 273°
2026-04-16 11:14 -37.65969 144.80878 1213 ft 161 kts 272°
2026-04-16 11:14 -37.65902 144.79469 2120 ft 160 kts 273°
2026-04-16 11:15 -37.65855 144.78066 2833 ft 164 kts 273°
2026-04-16 11:15 -37.65819 144.76582 3304 ft 175 kts 272°
2026-04-16 11:15 -37.65790 144.75002 3834 ft 186 kts 273°
2026-04-16 11:15 -37.65738 144.73286 4306 ft 207 kts 274°
2026-04-16 11:16 -37.65658 144.71405 4974 ft 222 kts 272°
2026-04-16 11:16 -37.66001 144.69448 5671 ft 239 kts 244°
2026-04-16 11:16 -37.67174 144.67865 6388 ft 259 kts 217°
2026-04-16 11:16 -37.68724 144.66673 7281 ft 263 kts 215°
2026-04-16 11:17 -37.70312 144.65508 8277 ft 264 kts 214°
2026-04-16 11:17 -37.71926 144.64379 9281 ft 266 kts 211°
2026-04-16 11:17 -37.73746 144.63793 10257 ft 278 kts 187°
2026-04-16 11:17 -37.75685 144.64242 11106 ft 296 kts 164°
2026-04-16 11:18 -37.77569 144.65510 11629 ft 317 kts 155°
2026-04-16 11:18 -37.79489 144.66953 12146 ft 332 kts 154°
2026-04-16 11:18 -37.81552 144.68569 12447 ft 357 kts 152°
2026-04-16 11:18 -37.83701 144.70285 12925 ft 370 kts 153°
2026-04-16 11:19 -37.85865 144.71986 13749 ft 373 kts 153°
2026-04-16 11:19 -37.88122 144.73726 14474 ft 377 kts 154°
2026-04-16 11:19 -37.90356 144.75423 15172 ft 381 kts 154°
2026-04-16 11:19 -37.92679 144.77175 15865 ft 386 kts 154°
2026-04-16 11:20 -37.94997 144.78921 16558 ft 391 kts 154°
2026-04-16 11:20 -37.97349 144.80693 17233 ft 395 kts 154°
2026-04-16 11:20 -37.99696 144.82463 17883 ft 400 kts 154°
2026-04-16 11:20 -38.02105 144.84282 18521 ft 404 kts 154°
2026-04-16 11:21 -38.04530 144.86116 19109 ft 408 kts 154°
2026-04-16 11:21 -38.06986 144.87974 19689 ft 412 kts 154°
2026-04-16 11:21 -38.09458 144.89847 20273 ft 416 kts 154°
2026-04-16 11:21 -38.11957 144.91741 20850 ft 420 kts 155°
2026-04-16 11:22 -38.14473 144.93650 21415 ft 424 kts 155°
2026-04-16 11:22 -38.17023 144.95584 21985 ft 428 kts 155°
2026-04-16 11:22 -38.19591 144.97536 22545 ft 432 kts 155°
2026-04-16 11:22 -38.22182 144.99505 23090 ft 436 kts 155°
2026-04-16 11:23 -38.24796 145.01494 23632 ft 440 kts 155°
2026-04-16 11:23 -38.27429 145.03499 24108 ft 443 kts 155°
2026-04-16 11:23 -38.30080 145.05520 24566 ft 447 kts 155°
2026-04-16 11:23 -38.32760 145.07564 25030 ft 450 kts 155°
2026-04-16 11:24 -38.35452 145.09619 25474 ft 453 kts 155°
2026-04-16 11:24 -38.38155 145.11685 25920 ft 456 kts 155°
2026-04-16 11:24 -38.40884 145.13770 26343 ft 459 kts 155°
2026-04-16 11:24 -38.43636 145.15876 26743 ft 463 kts 155°
2026-04-16 11:25 -38.46404 145.17996 27168 ft 465 kts 155°
2026-04-16 11:25 -38.49192 145.20121 27563 ft 467 kts 157°
2026-04-16 11:25 -38.52105 145.21908 27945 ft 463 kts 166°
2026-04-16 11:25 -38.55138 145.23267 28319 ft 462 kts 168°
2026-04-16 11:26 -38.58187 145.24596 28700 ft 465 kts 168°
2026-04-16 11:26 -38.61213 145.25930 29056 ft 467 kts 168°
2026-04-16 11:26 -38.64331 145.27307 29407 ft 470 kts 168°
2026-04-16 11:26 -38.67398 145.28662 29731 ft 473 kts 168°
2026-04-16 11:27 -38.70558 145.30058 30080 ft 476 kts 168°
2026-04-16 11:27 -38.73653 145.31425 30375 ft 478 kts 168°
2026-04-16 11:27 -38.76808 145.32821 30679 ft 480 kts 168°
2026-04-16 11:27 -38.79974 145.34221 30924 ft 483 kts 168°
2026-04-16 11:28 -38.83142 145.35625 30970 ft 482 kts 168°
2026-04-16 11:28 -38.89485 145.38442 30974 ft 482 kts 169°
2026-04-16 11:29 -38.95816 145.41255 30966 ft 482 kts 169°
2026-04-16 11:29 -39.02158 145.44079 30963 ft 482 kts 169°
2026-04-16 11:30 -39.08494 145.46904 30958 ft 482 kts 169°
2026-04-16 11:30 -39.14837 145.49739 30946 ft 482 kts 169°
2026-04-16 11:31 -39.21169 145.52574 30944 ft 482 kts 169°
2026-04-16 11:31 -39.27503 145.55416 30946 ft 482 kts 169°
2026-04-16 11:32 -39.33832 145.58260 30934 ft 482 kts 169°
2026-04-16 11:32 -39.40174 145.61115 30936 ft 482 kts 169°
2026-04-16 11:33 -39.46467 145.63954 30935 ft 483 kts 169°
2026-04-16 11:33 -39.52806 145.66819 30931 ft 483 kts 169°
2026-04-16 11:34 -39.59164 145.69699 30932 ft 483 kts 169°
2026-04-16 11:34 -39.65515 145.72580 30929 ft 484 kts 169°
2026-04-16 11:35 -39.71874 145.75471 30918 ft 484 kts 169°
2026-04-16 11:35 -39.78236 145.78369 30922 ft 485 kts 170°
2026-04-16 11:36 -39.83521 145.80781 30920 ft 485 kts 170°
2026-04-16 11:36 -39.89902 145.83698 30931 ft 486 kts 170°
2026-04-16 11:37 -39.96281 145.86621 30905 ft 486 kts 170°
2026-04-16 11:37 -40.02672 145.89556 30914 ft 487 kts 170°
2026-04-16 11:37 -40.05865 145.91035 31158 ft 488 kts 171°
2026-04-16 11:38 -40.09093 145.92534 30915 ft 497 kts 171°
2026-04-16 11:38 -40.15612 145.95562 30901 ft 497 kts 171°
2026-04-16 11:39 -40.22136 145.98598 30897 ft 497 kts 171°
2026-04-16 11:39 -40.28658 146.01637 30893 ft 498 kts 171°
2026-04-16 11:40 -40.35185 146.04685 30890 ft 498 kts 172°
2026-04-16 11:40 -40.41711 146.07739 30884 ft 498 kts 172°
2026-04-16 11:41 -40.48241 146.10800 30880 ft 498 kts 172°
2026-04-16 11:41 -40.54761 146.13863 30871 ft 498 kts 172°
2026-04-16 11:42 -40.61294 146.16938 30870 ft 499 kts 172°
2026-04-16 11:42 -40.67810 146.20012 30864 ft 499 kts 172°
2026-04-16 11:43 -40.74368 146.23111 30856 ft 500 kts 172°
2026-04-16 11:43 -40.77643 146.24661 30680 ft 501 kts 172°
2026-04-16 11:43 -40.80916 146.26214 30441 ft 499 kts 172°
2026-04-16 11:43 -40.84183 146.27766 30033 ft 498 kts 172°
2026-04-16 11:44 -40.87431 146.29312 29444 ft 495 kts 172°
2026-04-16 11:44 -40.90673 146.30854 28795 ft 492 kts 172°
2026-04-16 11:44 -40.93874 146.32381 28188 ft 486 kts 172°
2026-04-16 11:44 -40.97032 146.33887 27577 ft 481 kts 172°
2026-04-16 11:45 -41.00136 146.35367 26967 ft 477 kts 172°
2026-04-16 11:45 -41.03289 146.36871 26341 ft 473 kts 172°
2026-04-16 11:45 -41.06376 146.38343 25692 ft 471 kts 172°
2026-04-16 11:45 -41.09400 146.39789 25110 ft 466 kts 172°
2026-04-16 11:46 -41.12442 146.41244 24516 ft 463 kts 172°
2026-04-16 11:46 -41.15416 146.42984 23933 ft 475 kts 161°
2026-04-16 11:46 -41.18144 146.45595 23256 ft 491 kts 146°
2026-04-16 11:46 -41.20452 146.49004 22514 ft 502 kts 131°
2026-04-16 11:47 -41.22348 146.52929 21738 ft 505 kts 125°
2026-04-16 11:47 -41.24110 146.56940 21105 ft 500 kts 125°
2026-04-16 11:47 -41.25882 146.60878 20544 ft 493 kts 126°
2026-04-16 11:47 -41.27681 146.64708 19996 ft 486 kts 127°
2026-04-16 11:48 -41.29504 146.68467 19440 ft 479 kts 128°
2026-04-16 11:48 -41.31319 146.72149 18922 ft 473 kts 128°
2026-04-16 11:48 -41.33117 146.75776 18394 ft 468 kts 128°
2026-04-16 11:48 -41.34899 146.79365 17854 ft 462 kts 128°
2026-04-16 11:49 -41.36662 146.82920 17182 ft 457 kts 128°
2026-04-16 11:49 -41.38401 146.86436 16572 ft 452 kts 128°
2026-04-16 11:49 -41.40115 146.89905 15975 ft 447 kts 128°
2026-04-16 11:49 -41.41821 146.93365 15364 ft 443 kts 128°
2026-04-16 11:50 -41.43503 146.96779 14789 ft 438 kts 128°
2026-04-16 11:50 -41.45160 147.00147 14238 ft 433 kts 128°
2026-04-16 11:50 -41.46806 147.03496 13688 ft 429 kts 128°
2026-04-16 11:50 -41.48427 147.06799 12941 ft 422 kts 128°
2026-04-16 11:51 -41.50020 147.10049 12101 ft 416 kts 128°
2026-04-16 11:51 -41.51579 147.13237 11606 ft 401 kts 128°
2026-04-16 11:51 -41.53062 147.16280 11375 ft 381 kts 128°
2026-04-16 11:51 -41.54464 147.19160 11157 ft 361 kts 128°
2026-04-16 11:52 -41.55910 147.21782 10875 ft 339 kts 140°
2026-04-16 11:52 -41.57616 147.23801 10585 ft 316 kts 154°
2026-04-16 11:52 -41.59441 147.25363 10098 ft 310 kts 157°
2026-04-16 11:52 -41.61255 147.26890 9599 ft 306 kts 156°
2026-04-16 11:53 -41.63031 147.28308 9123 ft 293 kts 166°
2026-04-16 11:53 -41.64920 147.28836 8543 ft 267 kts 193°
2026-04-16 11:53 -41.66612 147.28209 7955 ft 245 kts 219°
2026-04-16 11:53 -41.67862 147.26757 7357 ft 235 kts 234°
2026-04-16 11:54 -41.68960 147.25140 6815 ft 235 kts 228°
2026-04-16 11:54 -41.70464 147.24231 6470 ft 248 kts 192°
2026-04-16 11:54 -41.72171 147.24736 6228 ft 264 kts 158°
2026-04-16 11:54 -41.73462 147.26542 5871 ft 278 kts 121°
2026-04-16 11:55 -41.73832 147.29083 5504 ft 282 kts 83°
2026-04-16 11:55 -41.73151 147.31481 5228 ft 273 kts 52°
2026-04-16 11:55 -41.71886 147.33234 5055 ft 256 kts 27°
2026-04-16 11:55 -41.70302 147.33977 4867 ft 232 kts 355°
2026-04-16 11:56 -41.68806 147.33610 4463 ft 212 kts 329°
2026-04-16 11:56 -41.67557 147.32660 3773 ft 203 kts 320°
2026-04-16 11:56 -41.66468 147.31600 3464 ft 184 kts 317°
2026-04-16 11:56 -41.65461 147.30603 3074 ft 177 kts 319°
2026-04-16 11:57 -41.64477 147.29692 2820 ft 167 kts 320°
2026-04-16 11:57 -41.63549 147.28893 2604 ft 151 kts 321°
2026-04-16 11:57 -41.62680 147.28135 2409 ft 149 kts 322°
2026-04-16 11:57 -41.61839 147.27415 2203 ft 138 kts 322°
2026-04-16 11:58 -41.61071 147.26752 2031 ft 124 kts 321°
2026-04-16 11:58 -41.60371 147.26148 1866 ft 121 kts 322°
2026-04-16 11:58 -41.59669 147.25543 1691 ft 118 kts 322°
2026-04-16 11:58 -41.58974 147.24936 1535 ft 120 kts 322°
2026-04-16 11:59 -41.58276 147.24344 1351 ft 119 kts 323°
2026-04-16 11:59 -41.57570 147.23737 1228 ft 121 kts 323°
2026-04-16 11:59 -41.56867 147.23089 1033 ft 124 kts 328°
2026-04-16 11:59 -41.56136 147.22486 851 ft 120 kts 329°
2026-04-16 12:00 -41.55446 147.21903 678 ft 115 kts 328°
2026-04-16 12:00 -41.54824 147.21370 590 ft 106 kts 327°
2026-04-16 12:00 -41.54430 147.21033 594 ft 33 kts 327°
2026-04-16 12:00 -41.54319 147.20932 592 ft 17 kts 310°
2026-04-16 12:01 -41.54316 147.20813 584 ft 16 kts 240°
2026-04-16 12:01 -41.54329 147.20778 584 ft 2 kts 250°
2026-04-16 12:01 -41.54332 147.20767 583 ft 0 kts 250°
2026-04-16 12:02 -41.54333 147.20745 583 ft 4 kts 273°
2026-04-16 12:02 -41.54320 147.20693 583 ft 7 kts 292°
2026-04-16 12:03 -41.54314 147.20676 583 ft 0 kts 292°